Location: West Chester
(39.9610°N, 75.6060°W)
Time: 20:31:55
(UTC-04:00)

ARIANE 6 FM1 Upper Stage - Pass Details

Date: 22 September 2024
Orbit: 563 x 594 km, 62.0° (Epoch: 11 October)

Event Time Altitude Azimuth Distance (km) Brightness Sun altitude
Rises 20:45:52 0° 237° (WSW) 2,769 6.8 -21.1°
Reaches altitude 10° 20:48:13 10° 246° (WSW) 1,881 6.0 -21.5°
Maximum altitude 20:52:08 35° 313° (NW) 946 4.3 -22.2°
Drops below altitude 10° 20:56:07 10° 20° (NNE) 1,912 5.4 -22.9°
Enters shadow 20:57:23 - 26° (NNE) 2,383 5.8 -23.1°
